Temperature
16 16 16 16 16 16 16 16 16 15 15 15 15 15 15 15 15 15 15 15 15 15 15 15 15 15 15 15 14 14 14 14 14 14 14 14 14 14
16 16 16 16 16 16 16 16 15 15 15 15 15 15 15 15 15 15 15 15 14 14 15 14 14 14 14 14 14 14 14 13 13 13 13 13 13 13
16 16 16 16 16 16 15 15 15 15 15 15 14 14 14 14 14 14 14 14 14 14 14 14 14 14 14 14 13 13 13 13 13 13 13 13 13 13
16 15 15 15 15 15 15 15 15 15 14 14 14 14 14 13 13 13 13 13 13 13 13 13 13 13 13 13 13 13 13 12 12 12 12 12 12 12
15 15 15 15 15 15 15 15 14 14 14 14 13 13 13 13 13 13 13 12 12 12 12 12 12 12 12 12 12 12 12 12 12 12 12 11 11 11
15 15 15 15 15 15 14 14 14 14 14 13 13 13 12 12 12 12 12 12 12 12 12 12 11 11 11 11 11 11 11 11 11 11 11 11 11 11
14 14 14 14 14 14 14 14 14 13 13 13 12 12 12 12 12 11 11 11 11 11 11 11 11 11 11 10 10 10 10 10 10 10 10 10 10 10
14 14 14 14 13 13 13 13 13 13 13 12 12 11 11 11 11 11 11 11 10 10 10 10 10 10 10 10 10 10 10 9 9 9 9 9 9 9
13 13 13 13 13 13 13 12 12 12 12 12 11 11 11 11 11 11 10 10 10 10 10 10 10 9 9 9 9 9 9 9 9 8 8 8 8 8
13 13 13 12 12 12 12 12 12 11 11 11 11 11 10 10 10 10 10 10 10 9 9 9 9 9 9 8 8 8 8 8 8 8 8 8 7 7
12 12 12 12 11 11 11 11 11 11 10 10 10 10 10 10 10 10 10 10 9 9 9 9 8 8 8 8 8 8 8 7 7 7 7 7 7 7
12 11 11 11 11 11 11 11 11 10 10 10 10 10 10 10 9 9 9 9 9 9 8 8 8 8 8 7 7 7 7 7 7 7 7 6 6 6
11 11 11 10 10 10 10 10 10 10 10 10 10 9 9 9 9 9 9 9 9 8 8 8 8 8 7 7 7 7 7 7 6 6 6 6 6 6
11 10 10 10 10 10 10 10 10 9 9 9 9 9 9 9 8 8 8 8 8 8 8 8 8 7 7 7 7 6 6 6 6 6 6 6 6 5
10 10 10 10 10 9 9 9 9 9 9 9 8 8 8 8 8 8 8 8 8 8 7 7 7 7 7 7 6 6 6 6 6 6 6 5 5 5
10 10 10 9 9 9 9 9 9 8 8 8 8 8 8 8 8 7 7 7 7 7 7 7 7 7 6 6 6 6 6 6 6 6 6 5 5 5
10 9 9 9 9 9 8 8 8 8 8 8 7 7 7 7 7 7 7 7 7 7 7 6 6 6 6 6 6 6 6 5 5 5 5 5 5 5
9 9 9 9 8 8 8 8 8 8 7 7 7 7 7 7 7 7 7 7 6 6 6 6 6 6 6 6 6 5 5 5 5 5 5 5 5 5
9 9 8 8 8 8 8 7 7 7 7 7 7 7 7 6 6 6 6 6 6 6 6 6 6 6 5 5 5 5 5 5 5 5 5 5 4 4
9 8 8 8 8 8 7 7 7 7 7 7 6 6 6 6 6 6 6 6 6 5 5 5 5 5 5 5 5 5 5 5 5 5 5 4 4 4
8 8 8 8 7 7 7 7 7 7 6 6 6 6 6 6 5 5 5 5 5 5 5 5 5 5 5 5 5 5 5 5 5 4 4 4 4 4
8 8 8 7 7 7 7 7 6 6 6 6 6 6 5 5 5 5 5 5 5 5 5 5 5 5 5 5 4 4 5 5 4 4 4 4 4 4
8 8 7 7 7 7 7 6 6 6 6 6 6 5 5 5 5 5 5 5 5 5 5 5 5 4 4 4 4 4 4 4 4 4 4 4 4 4
Wind_Speed
2 2 2 2 2 2 2 3 3 3 3 1 1 1 2 1 2 2 2 4 3 2 1 0 1 2 3 4 4 5 6 6 6 5 6 6 6 7
1 1 1 1 1 1 2 2 2 3 3 1 1 1 1 2 4 3 4 6 7 6 5 4 3 3 2 1 0 1 1 2 3 3 3 4 4 5
1 1 1 0 0 0 0 0 0 1 2 1 1 1 2 3 4 5 5 5 6 8 7 7 6 6 5 5 3 3 3 3 3 2 0 1 2 3
3 3 2 2 3 2 2 1 1 1 1 0 1 2 2 3 3 4 5 6 7 9 10 10 10 10 10 9 9 8 7 7 6 6 6 5 3 2
4 4 4 4 4 3 3 2 2 2 2 2 2 2 2 3 3 4 5 5 7 9 10 11 12 13 13 12 12 11 11 10 10 10 10 10 9 8
5 5 5 4 4 4 4 4 3 4 4 3 3 2 2 2 3 3 4 5 5 8 10 10 12 14 14 14 13 12 12 12 12 12 12 12 11 11
7 7 7 8 8 6 5 4 5 4 4 4 3 3 3 2 2 2 3 4 5 5 5 7 8 9 10 12 12 12 12 12 12 12 12 12 12 11
8 7 8 9 10 11 11 10 7 5 4 4 3 3 2 2 2 2 2 2 2 4 3 5 5 6 7 9 10 11 12 12 12 11 11 11 11 12
7 7 7 8 8 8 11 12 12 11 7 4 4 3 2 2 2 3 3 3 2 2 2 3 4 5 6 8 10 10 10 10 10 10 10 10 10 11
8 8 8 8 8 8 9 10 9 9 8 6 5 4 4 3 3 3 3 3 3 3 2 2 2 3 4 6 9 9 9 9 9 9 9 9 9 9
8 8 8 8 9 10 9 9 9 8 11 14 13 12 11 10 6 4 4 4 3 3 3 2 1 1 2 3 6 8 9 9 9 9 9 9 8 7
7 8 10 10 10 10 8 8 8 6 6 8 10 11 11 12 11 6 3 3 2 2 3 2 1 1 1 2 3 5 5 6 7 7 7 7 7 5
6 6 6 11 11 11 9 7 6 5 6 7 7 7 7 8 9 9 6 4 3 2 2 1 1 1 1 1 2 3 3 3 4 4 5 5 6 5
5 4 5 10 12 11 9 8 9 7 6 7 7 6 6 6 6 7 9 8 6 4 3 2 1 1 1 1 1 2 3 3 3 3 3 4 4 4
5 7 9 11 10 9 11 10 8 6 6 6 6 4 4 4 4 5 7 8 9 9 8 5 2 2 2 1 1 2 2 2 3 2 3 2 2 2
6 8 10 12 9 8 7 7 6 5 5 4 3 3 3 4 5 4 4 4 4 5 8 9 6 3 2 2 1 2 2 2 2 2 2 2 2 1
5 5 5 5 6 5 5 5 5 5 5 4 4 4 4 4 4 4 3 4 4 4 5 5 6 5 3 2 2 2 2 2 3 3 2 2 2 3
6 5 4 4 4 4 4 4 4 4 4 3 4 4 3 4 4 4 4 4 4 3 4 4 4 3 2 3 2 2 2 3 3 3 2 2 3 3
6 4 3 3 3 3 3 3 3 3 2 3 3 3 3 3 3 3 4 3 3 3 3 4 4 3 4 4 3 2 2 2 3 3 2 2 3 4
3 3 2 2 2 2 2 2 2 2 2 3 3 3 2 2 3 3 3 3 3 3 3 4 4 3 3 3 3 3 3 2 2 3 3 2 3 4
2 2 2 2 2 2 2 2 2 2 2 2 2 2 2 2 2 2 2 3 3 3 3 4 4 5 2 1 2 3 3 4 3 2 2 2 3 3
2 2 2 1 2 2 1 1 1 2 2 2 2 2 2 1 1 2 2 2 2 2 3 3 4 3 2 2 4 4 4 4 5 4 3 3 2 3
2 2 2 1 1 1 1 1 1 1 1 1 1 1 1 1 1 1 2 2 2 3 3 4 4 3 3 3 3 4 5 5 4 4 4 5 6 8
Wind_Direction
223 211 225 247 234 234 223 211 215 241 263 265 290 358 20 55 36 67 74 65 68 73 94 219 253 255 246 241 244 245 244 244 240 244 253 253 251 251
169 160 229 277 246 231 216 221 216 222 246 285 261 345 42 53 50 66 71 65 56 60 69 75 73 61 44 28 64 158 223 243 225 223 238 248 253 253
45 81 43 348 68 82 116 112 144 168 218 304 6 24 46 59 53 59 61 58 54 55 61 65 68 68 66 61 63 80 86 76 73 72 341 289 281 275
46 58 51 54 54 59 75 78 81 103 150 149 19 31 49 58 62 59 58 63 62 56 59 61 64 67 67 63 65 68 71 70 65 59 52 36 20 14
52 55 53 62 55 54 64 71 76 83 97 113 61 33 47 50 56 60 58 54 60 54 56 60 64 65 66 66 67 67 67 67 65 62 62 60 57 57
53 55 55 62 64 67 70 71 80 82 85 91 78 54 46 43 59 64 59 50 50 48 50 55 58 60 59 61 64 66 67 68 67 65 64 63 63 64
55 54 58 64 66 68 74 75 82 86 85 83 74 58 47 48 51 52 78 67 51 41 47 44 48 51 52 55 60 65 69 70 69 65 63 60 59 61
60 53 55 57 62 65 68 68 75 89 92 84 76 74 48 38 46 71 83 76 60 21 46 47 46 49 45 52 56 65 67 68 67 66 66 67 67 66
62 58 58 52 59 67 65 62 60 63 72 91 87 68 54 30 68 73 73 74 73 23 50 56 43 52 46 45 50 60 64 66 65 65 69 69 69 70
57 59 64 56 60 70 73 66 58 51 52 62 69 58 57 62 74 85 96 89 76 41 37 67 49 49 41 41 46 57 60 61 60 60 64 66 66 69
55 56 62 62 56 67 76 73 64 53 56 64 65 61 58 59 71 83 80 84 70 38 25 57 61 45 40 39 41 53 60 61 59 59 64 61 57 59
62 54 56 64 61 66 75 77 73 56 56 57 53 51 53 52 52 56 69 79 72 48 21 35 42 31 45 33 24 31 45 50 54 55 58 55 46 49
76 61 54 61 64 64 70 74 81 78 69 67 60 51 47 45 44 46 48 61 68 53 14 32 51 41 44 5 5 12 19 24 30 36 45 43 39 41
87 75 68 70 70 66 68 68 70 70 70 66 60 51 44 40 36 42 51 57 58 52 17 33 63 64 61 24 3 358 10 16 24 25 30 33 34 29
89 88 82 75 70 65 61 63 64 68 69 67 61 48 33 25 33 42 43 51 54 48 41 36 52 70 71 54 20 359 354 2 7 12 14 17 10 14
84 79 75 70 67 60 55 52 54 61 71 70 60 44 36 40 39 34 36 33 47 37 33 38 43 60 64 49 44 17 359 348 351 354 357 359 357 345
100 79 68 66 64 57 53 49 50 53 55 52 58 56 50 47 38 31 36 41 46 30 18 16 26 49 60 50 41 25 12 5 355 352 351 358 349 340
97 89 82 78 78 73 67 57 50 49 48 55 59 59 54 51 48 40 41 44 42 30 21 10 7 23 36 51 36 0 1 352 347 352 349 339 343 344
95 97 96 94 88 83 75 68 53 39 42 61 63 57 54 53 51 43 38 36 33 26 17 12 16 20 12 3 2 3 330 332 339 344 345 333 325 328
101 112 113 112 110 105 92 80 67 57 53 53 57 57 55 57 54 41 34 27 23 15 10 9 7 359 344 332 325 330 331 308 321 330 333 326 317 309
116 116 118 120 119 117 106 90 83 72 60 56 52 50 49 53 48 35 29 26 24 12 1 351 337 323 296 299 329 343 344 334 303 293 305 316 326 331
135 132 128 132 136 134 128 114 92 72 60 54 45 38 33 37 35 24 17 13 3 351 339 340 344 350 0 347 338 333 331 337 334 317 280 252 295 312
150 150 149 149 142 141 141 130 112 81 56 44 38 24 17 9 354 350 349 349 344 345 345 345 350 352 348 334 327 326 328 332 332 330 325 311 287 282
Height
1537 1537 1537 1538 1538 1539 1539 1540 1540 1539 1539 1539 1540 1539 1539 1539 1539 1539 1539 1539 1539 1538 1538 1538 1538 1538 1538 1538 1538 1538 1539 1539 1539 1539 1540 1540 1540 1541
1534 1534 1535 1535 1535 1535 1536 1536 1536 1537 1536 1536 1536 1536 1536 1536 1536 1536 1536 1536 1536 1535 1535 1535 1535 1535 1534 1534 1534 1534 1534 1534 1535 1535 1535 1535 1535 1536
1532 1532 1532 1532 1532 1532 1533 1533 1533 1534 1533 1533 1534 1534 1533 1533 1533 1533 1533 1533 1533 1533 1532 1532 1532 1531 1531 1531 1530 1530 1530 1530 1530 1531 1531 1531 1531 1531
1531 1531 1530 1530 1530 1530 1530 1531 1531 1531 1531 1531 1531 1531 1531 1531 1531 1531 1531 1531 1531 1531 1530 1530 1529 1529 1528 1528 1528 1527 1527 1527 1527 1527 1527 1527 1527 1526
1531 1530 1530 1529 1529 1529 1529 1529 1530 1530 1530 1530 1530 1530 1529 1530 1529 1530 1530 1530 1530 1529 1529 1528 1528 1527 1527 1526 1526 1525 1525 1525 1524 1524 1524 1523 1523 1522
1531 1530 1529 1529 1529 1528 1528 1528 1529 1529 1529 1529 1529 1529 1529 1529 1529 1528 1528 1529 1529 1529 1528 1528 1527 1527 1526 1526 1525 1524 1524 1523 1522 1522 1522 1521 1520 1519
1531 1530 1530 1529 1529 1529 1528 1528 1529 1529 1529 1529 1529 1529 1528 1528 1529 1529 1528 1529 1529 1529 1529 1528 1528 1527 1526 1525 1525 1524 1523 1522 1521 1521 1520 1519 1518 1517
1532 1532 1531 1531 1530 1530 1529 1529 1529 1529 1529 1529 1529 1529 1529 1530 1530 1529 1529 1529 1529 1530 1529 1529 1528 1527 1527 1526 1525 1524 1523 1522 1521 1520 1519 1518 1517 1516
1534 1533 1533 1533 1532 1532 1531 1531 1530 1530 1530 1531 1530 1530 1530 1530 1530 1530 1530 1530 1530 1530 1530 1529 1529 1528 1528 1527 1526 1525 1524 1523 1521 1520 1519 1518 1517 1515
1536 1535 1535 1535 1535 1534 1534 1533 1532 1532 1532 1532 1532 1532 1532 1532 1531 1531 1531 1531 1531 1531 1530 1530 1530 1529 1529 1528 1527 1526 1525 1523 1522 1520 1519 1518 1516 1515
1538 1538 1538 1537 1537 1537 1536 1535 1535 1535 1535 1535 1534 1534 1534 1533 1533 1532 1532 1531 1531 1531 1531 1531 1530 1529 1529 1528 1527 1526 1525 1523 1522 1520 1519 1517 1516 1514
1540 1540 1540 1540 1540 1539 1539 1538 1537 1537 1537 1537 1537 1536 1536 1535 1535 1534 1533 1533 1532 1532 1532 1531 1531 1530 1529 1529 1528 1526 1525 1524 1522 1521 1519 1518 1516 1515
1542 1542 1542 1542 1542 1542 1541 1540 1540 1540 1540 1539 1539 1538 1538 1537 1536 1536 1535 1535 1534 1533 1533 1532 1531 1530 1529 1529 1528 1526 1525 1524 1522 1521 1520 1518 1517 1515
1544 1545 1545 1545 1544 1544 1543 1543 1543 1542 1542 1541 1541 1540 1539 1539 1538 1538 1537 1536 1535 1535 1534 1533 1531 1530 1529 1528 1528 1527 1525 1524 1523 1521 1520 1519 1517 1515
1546 1547 1547 1547 1546 1546 1546 1545 1545 1544 1543 1543 1542 1542 1541 1541 1540 1539 1538 1537 1536 1535 1534 1533 1532 1531 1530 1529 1528 1526 1525 1524 1523 1522 1520 1519 1517 1515
1548 1549 1549 1549 1548 1548 1548 1547 1546 1546 1545 1545 1544 1544 1543 1542 1541 1540 1539 1538 1537 1536 1535 1534 1533 1532 1530 1529 1528 1527 1526 1524 1523 1521 1520 1518 1516 1515
1550 1550 1550 1550 1549 1549 1549 1549 1548 1548 1547 1546 1546 1545 1544 1543 1542 1541 1540 1539 1538 1537 1536 1535 1533 1532 1531 1530 1528 1527 1526 1524 1523 1521 1519 1518 1516 1514
1551 1551 1551 1551 1551 1550 1550 1550 1550 1549 1548 1548 1547 1546 1545 1544 1543 1542 1541 1540 1539 1537 1536 1535 1534 1532 1531 1529 1529 1527 1526 1524 1522 1521 1519 1517 1516 1514
1552 1552 1552 1552 1552 1552 1551 1551 1550 1550 1549 1549 1548 1547 1546 1545 1544 1543 1542 1541 1539 1538 1537 1535 1534 1532 1531 1530 1529 1527 1525 1523 1522 1520 1518 1517 1515 1513
1552 1553 1553 1553 1552 1552 1552 1551 1551 1551 1550 1549 1548 1547 1546 1545 1544 1543 1542 1541 1540 1538 1537 1536 1534 1532 1531 1530 1528 1527 1525 1523 1521 1519 1518 1516 1514 1513
1553 1553 1553 1553 1553 1553 1552 1552 1552 1551 1550 1549 1548 1547 1546 1545 1544 1544 1542 1541 1540 1539 1537 1536 1534 1533 1531 1529 1528 1526 1524 1523 1521 1519 1517 1515 1513 1511
1553 1553 1553 1553 1553 1553 1553 1552 1552 1551 1550 1549 1548 1547 1546 1545 1544 1543 1542 1541 1540 1538 1537 1535 1534 1532 1530 1529 1527 1525 1523 1521 1520 1518 1516 1514 1512 1510
1552 1553 1553 1553 1553 1553 1553 1552 1552 1551 1550 1549 1548 1547 1546 1545 1544 1543 1542 1541 1539 1538 1536 1534 1533 1531 1529 1528 1526 1524 1522 1520 1518 1516 1515 1513 1511 1510